OK1FET-14 Weather Reports


time (UTC)temp
C
wind
direction
speed
KPH
gust
KPH
rain 1hr
cm
rain 24hr
cm
rain mn
cm
humidity
%
barometer
mb
20260506051123 10 203 17.7 24.1 0.00 0.00 0.00 100 1007.6
20260506050643 10 213 22.5 25.7 0.00 0.00 0.00 100 1007.5
20260506050203 10 222 17.7 20.9 0.00 0.00 0.00 100 1007.5
20260506044803 10 195 14.5 20.9 0.00 0.00 0.00 100 1007.4
20260506044323 10 212 17.7 25.7 0.00 0.00 0.00 100 1007.4
20260506043843 10 215 22.5 25.7 0.00 0.00 0.00 100 1007.5
20260506043403 10 219 20.9 27.4 0.00 0.00 0.00 100 1007.6
20260506042923 10 219 25.7 30.6 0.00 0.00 0.00 100 1007.5
20260506042442 9 207 25.7 29.0 0.00 0.00 0.00 100 1007.4
20260506042002 9 199 27.4 30.6 0.00 0.00 0.00 100 1007.5
20260506041522 9 216 24.1 27.4 0.00 0.00 0.00 100 1007.4
20260506041042 9 203 25.7 29.0 0.00 0.00 0.00 100 1007.3
20260506040602 9 204 25.7 32.2 0.00 0.00 0.00 100 1007.3
20260506040122 9 213 24.1 33.8 0.00 0.00 0.00 100 1007.2
20260506035642 9 216 22.5 32.2 0.00 0.00 0.00 100 1007.1
20260506035202 8 213 19.3 29.0 0.00 0.00 0.00 100 1007.0
20260506034722 8 222 17.7 20.9 0.00 0.00 0.00 100 1006.9
20260506034242 8 222 20.9 22.5 0.00 0.00 0.00 100 1006.9
20260506033802 8 222 20.9 22.5 0.00 0.00 0.00 100 1006.9
20260506033322 8 222 20.9 20.9 0.00 0.00 0.00 100 1006.9
20260506032842 8 222 19.3 24.1 0.00 0.00 0.00 100 1007.0
20260506032402 8 213 19.3 20.9 0.00 0.00 0.00 100 1007.0
20260506031922 8 222 19.3 20.9 0.00 0.00 0.00 100 1007.0
20260506031442 8 216 19.3 24.1 0.00 0.00 0.00 100 1007.0
20260506031002 8 219 24.1 30.6 0.00 0.00 0.00 100 1006.9
20260506030522 8 222 17.7 20.9 0.00 0.00 0.00 100 1007.0
20260506030042 8 222 24.1 35.4 0.00 0.00 0.00 100 1007.1
20260506025602 8 216 25.7 32.2 0.00 0.00 0.00 100 1007.1
20260506025122 8 215 27.4 32.2 0.00 0.00 0.00 100 1007.1
20260506024642 9 224 24.1 30.6 0.00 0.00 0.00 100 1007.0
20260506024202 9 213 24.1 27.4 0.00 0.00 0.00 100 1007.2
20260506023722 9 222 27.4 32.2 0.00 0.00 0.00 100 1007.3
20260506023242 9 225 20.9 27.4 0.00 0.00 0.00 100 1007.2
20260506022802 9 216 17.7 25.7 0.00 0.00 0.00 100 1007.2
20260506022322 9 218 19.3 24.1 0.00 0.00 0.00 100 1007.3
20260506021842 9 203 16.1 19.3 0.00 0.00 0.00 100 1007.3
20260506021402 9 210 14.5 19.3 0.00 0.00 0.00 100 1007.3
20260506020922 9 212 16.1 19.3 0.00 0.00 0.00 100 1007.3
20260506020442 9 215 16.1 19.3 0.00 0.00 0.00 100 1007.4
20260506020002 9 222 14.5 17.7 0.00 0.00 0.00 100 1007.4
20260506015522 9 213 14.5 16.1 0.00 0.00 0.00 100 1007.4
20260506015042 9 216 14.5 16.1 0.00 0.00 0.00 100 1007.4
20260506014602 9 219 12.9 14.5 0.00 0.00 0.00 100 1007.4
20260506014122 9 222 16.1 19.3 0.00 0.00 0.00 100 1007.3
20260506013642 10 203 16.1 19.3 0.00 0.00 0.00 100 1007.3
20260506013202 10 206 16.1 19.3 0.00 0.00 0.00 100 1007.3
20260506012722 10 222 16.1 22.5 0.00 0.00 0.00 100 1007.3
20260506012242 10 213 17.7 20.9 0.00 0.00 0.00 100 1007.2
20260506011802 10 213 16.1 19.3 0.00 0.00 0.00 100 1007.2
20260506011322 10 203 16.1 17.7 0.00 0.00 0.00 100 1007.2
20260506010841 10 206 14.5 16.1 0.00 0.00 0.00 100 1007.3
20260506010401 10 210 12.9 16.1 0.00 0.00 0.00 100 1007.3
20260506005921 10 215 11.3 14.5 0.00 0.00 0.00 100 1007.3
20260506005441 10 207 12.9 17.7 0.00 0.00 0.00 100 1007.2
20260506005001 10 204 12.9 16.1 0.00 0.00 0.00 100 1007.2
20260506004521 10 183 16.1 19.3 0.00 0.00 0.00 100 1007.3
20260506004041 10 209 16.1 20.9 0.00 0.00 0.00 100 1007.3
20260506003601 10 218 19.3 20.9 0.00 0.00 0.00 100 1007.3
20260506003121 10 201 20.9 25.7 0.00 0.00 0.00 100 1007.3
20260506002641 10 195 20.9 25.7 0.00 0.00 0.00 100 1007.2
20260506002201 10 206 19.3 24.1 0.00 0.00 0.00 100 1007.3
20260506001721 10 213 19.3 22.5 0.00 0.00 0.00 100 1007.3
20260506001241 10 203 20.9 24.1 0.00 0.00 0.00 100 1007.3
20260506000801 10 196 19.3 24.1 0.00 0.00 0.00 100 1007.4
20260506000322 10 216 16.1 19.3 0.00 0.00 0.00 100 1007.4
20260505235840 10 210 14.5 19.3 0.00 0.00 0.00 100 1007.5
20260505235400 10 218 12.9 16.1 0.00 0.00 0.00 100 1007.5
20260505234920 10 183 14.5 19.3 0.00 0.00 0.00 100 1007.6
20260505234440 10 196 14.5 17.7 0.00 0.00 0.00 100 1007.6
20260505234000 10 192 12.9 16.1 0.00 0.00 0.00 100 1007.5
20260505233520 10 190 9.7 14.5 0.00 0.00 0.00 100 1007.5
20260505233040 10 224 9.7 9.7 0.00 0.00 0.00 100 1007.5
20260505232600 10 221 8.0 11.3 0.00 0.00 0.00 100 1007.6
20260505232120 10 209 8.0 9.7 0.00 0.00 0.00 100 1007.5
20260505231640 10 225 9.7 12.9 0.00 0.00 0.00 100 1007.4
20260505231200 10 210 6.4 8.0 0.00 0.00 0.00 100 1007.5
20260505230720 10 225 6.4 6.4 0.00 0.00 0.00 100 1007.3
20260505230240 10 203 8.0 9.7 0.00 0.00 0.00 100 1007.3
20260505225759 10 180 4.8 6.4 0.00 0.00 0.00 100 1007.3
20260505225319 10 180 4.8 6.4 0.00 0.00 0.00 100 1007.4
20260505224839 10 180 6.4 8.0 0.00 0.00 0.00 100 1007.3
20260505224359 10 180 4.8 4.8 0.00 0.00 0.00 100 1007.3
20260505223919 10 180 0.0 1.6 0.00 0.00 0.00 100 1007.2
20260505223439 10 180 0.0 3.2 0.00 0.00 0.00 100 1007.2
20260505222959 10 180 1.6 3.2 0.00 0.00 0.00 100 1007.1
20260505222519 10 218 1.6 3.2 0.00 0.00 0.00 100 1007.2
20260505222039 10 225 3.2 4.8 0.00 0.00 0.00 100 1007.3
20260505221559 10 219 3.2 4.8 0.00 0.00 0.00 100 1007.4
20260505221119 10 213 4.8 8.0 0.00 0.00 0.00 100 1007.5
20260505220719 10 219 8.0 9.7 0.00 0.00 0.00 100 1007.5
20260505220639 10 219 8.0 9.7 0.00 0.00 0.00 100 1007.5
20260505220235 10 192 8.0 12.9 0.00 0.00 0.00 100 1007.5
20260505220159 10 192 8.0 12.9 0.00 0.00 0.00 100 1007.5
20260505215718 10 240 6.4 9.7 0.00 0.00 0.00 100 1007.5
20260505215238 10 220 8.0 11.3 0.00 0.00 0.00 100 1007.6
20260505214758 10 267 8.0 16.1 0.00 0.00 0.00 100 1007.8
20260505214318 10 357 11.3 16.1 0.00 0.00 0.00 100 1007.6
20260505213838 10 342 14.5 19.3 0.00 0.00 0.00 100 1007.2
20260505213358 10 344 11.3 17.7 0.00 0.00 0.00 100 1007.2
20260505212918 10 331 14.5 19.3 0.00 0.00 0.00 100 1007.0
20260505212438 10 259 6.4 17.7 0.00 0.00 0.00 100 1007.3
20260505211958 10 232 9.7 17.7 0.00 0.00 0.00 100 1007.7
20260505211518 10 255 12.9 17.7 0.00 0.00 0.00 100 1007.8
20260505211038 10 252 16.1 24.1 0.00 0.00 0.00 100 1007.7
20260505210721 10 232 20.9 25.7 0.00 0.00 0.00 100 1007.8
20260505210557 10 232 20.9 25.7 0.00 0.00 0.00 100 1007.8
20260505210117 10 246 22.5 27.4 0.00 0.00 0.00 100 1008.0
20260505205637 10 236 22.5 32.2 0.00 0.00 0.00 100 1007.9
20260505205157 10 268 19.3 30.6 0.00 0.00 0.00 100 1008.0
20260505204717 10 246 19.3 25.7 0.00 0.00 0.00 100 1008.0
20260505204237 10 266 17.7 25.7 0.00 0.00 0.00 100 1008.1
20260505203757 11 243 24.1 40.2 0.00 0.00 0.00 100 1007.8
20260505203519 11 249 24.1 37.0 0.00 0.00 0.00 100 1007.7
20260505203317 11 249 24.1 37.0 0.00 0.00 0.00 100 1007.7
20260505202836 11 264 25.7 35.4 0.00 0.00 0.00 100 1007.5
20260505202356 11 240 29.0 53.1 0.00 0.00 0.00 100 1007.7
20260505201916 12 227 32.2 37.0 0.00 0.00 0.00 100 1007.9
20260505201436 13 221 32.2 40.2 0.00 0.00 0.00 100 1007.7
20260505200955 13 210 27.4 33.8 0.00 0.00 0.00 99 1007.7
20260505200720 13 210 24.1 29.0 0.00 0.00 0.00 95 1007.8
20260505200515 13 210 24.1 29.0 0.00 0.00 0.00 95 1007.8
20260505200035 14 219 16.1 30.6 0.00 0.00 0.00 87 1007.6
20260505195554 15 353 4.8 8.0 0.00 0.00 0.00 72 1007.2
20260505195316 15 356 6.4 9.7 0.00 0.00 0.00 72 1006.9
20260505195114 15 356 6.4 9.7 0.00 0.00 0.00 72 1006.9
20260505194633 15 353 8.0 9.7 0.00 0.00 0.00 73 1006.6
20260505194153 15 0 8.0 11.3 0.00 0.00 0.00 72 1006.3
20260505193827 15 357 9.7 12.9 0.00 0.00 0.00 72 1006.2
20260505193713 15 357 9.7 12.9 0.00 0.00 0.00 72 1006.2
20260505193232 16 0 12.9 16.1 0.00 0.00 0.00 71 1006.1
20260505192752 16 0 14.5 19.3 0.00 0.00 0.00 71 1006.0
20260505192311 16 0 14.5 19.3 0.00 0.00 0.00 71 1005.9
20260505191831 16 1 14.5 19.3 0.00 0.00 0.00 70 1005.9
20260505191350 16 1 16.1 22.5 0.00 0.00 0.00 70 1005.9
20260505190910 16 0 14.5 20.9 0.00 0.00 0.00 70 1005.8
20260505190430 16 3 17.7 25.7 0.00 0.00 0.00 70 1005.7
20260505185949 16 19 14.5 19.3 0.00 0.00 0.00 70 1005.8
20260505185719 16 13 17.7 24.1 0.00 0.00 0.00 69 1005.8
20260505185509 16 13 17.7 24.1 0.00 0.00 0.00 69 1005.8
20260505185028 16 13 16.1 25.7 0.00 0.00 0.00 69 1005.7
20260505184718 16 24 16.1 22.5 0.00 0.00 0.00 69 1005.6
20260505184548 16 24 16.1 22.5 0.00 0.00 0.00 69 1005.6
20260505184107 16 41 22.5 29.0 0.00 0.00 0.00 68 1005.6
20260505183627 17 35 25.7 30.6 0.00 0.00 0.00 68 1005.5
20260505183146 17 39 24.1 32.2 0.00 0.00 0.00 68 1005.6
20260505182713 17 42 22.5 32.2 0.00 0.00 0.00 67 1005.5
20260505182710 17 42 22.5 32.2 0.00 0.00 0.00 67 1005.5
20260505182705 17 42 22.5 32.2 0.00 0.00 0.00 67 1005.5
20260505182225 17 45 20.9 29.0 0.00 0.00 0.00 67 1005.5
20260505181744 17 33 25.7 30.6 0.00 0.00 0.00 66 1005.5
20260505181304 17 33 22.5 29.0 0.00 0.00 0.00 66 1005.6
20260505181101 17 42 24.1 30.6 0.00 0.00 0.00 65 1005.6
20260505180823 17 42 24.1 30.6 0.00 0.00 0.00 65 1005.6
20260505180343 17 45 27.4 37.0 0.00 0.00 0.00 65 1005.5
20260505175902 17 29 16.1 22.5 0.00 0.00 0.00 64 1005.6
20260505175422 17 10 12.9 17.7 0.00 0.00 0.00 64 1005.6
20260505174941 17 15 19.3 25.7 0.00 0.00 0.00 63 1005.6
20260505174500 18 12 19.3 30.6 0.00 0.00 0.00 63 1005.6
20260505174020 18 24 16.1 25.7 0.00 0.00 0.00 63 1005.6
20260505173539 18 4 19.3 27.4 0.00 0.00 0.00 62 1005.6
20260505173059 18 3 24.1 32.2 0.00 0.00 0.00 62 1005.5
20260505172618 18 3 19.3 25.7 0.00 0.00 0.00 62 1005.4
20260505172137 18 13 19.3 25.7 0.00 0.00 0.00 62 1005.4
20260505171657 18 10 17.7 30.6 0.00 0.00 0.00 61 1005.4
20260505171216 18 12 24.1 33.8 0.00 0.00 0.00 61 1005.4
20260505170735 18 0 22.5 37.0 0.00 0.00 0.00 61 1005.6
20260505170255 18 3 25.7 32.2 0.00 0.00 0.00 60 1005.6
20260505165913 18 0 19.3 29.0 0.00 0.00 0.00 60 1005.5
20260505165814 18 0 19.3 29.0 0.00 0.00 0.00 60 1005.5
20260505165333 18 3 17.7 30.6 0.00 0.00 0.00 59 1005.7
20260505165020 18 0 22.5 37.0 0.00 0.00 0.00 59 1005.6
20260505164857 18 0 22.5 37.0 0.00 0.00 0.00 59 1005.6
20260505164853 18 0 22.5 37.0 0.00 0.00 0.00 59 1005.6
20260505164608 19 0 16.1 20.9 0.00 0.00 0.00 58 1005.6
20260505164412 19 0 16.1 20.9 0.00 0.00 0.00 58 1005.6
20260505163931 19 0 17.7 20.9 0.00 0.00 0.00 58 1005.7
20260505163451 19 0 19.3 24.1 0.00 0.00 0.00 58 1005.6
20260505163010 19 0 22.5 35.4 0.00 0.00 0.00 57 1005.8
20260505162529 19 0 17.7 24.1 0.00 0.00 0.00 57 1005.8
20260505162048 19 0 16.1 22.5 0.00 0.00 0.00 57 1005.8
20260505161608 19 357 17.7 20.9 0.00 0.00 0.00 57 1005.8
20260505161219 20 3 16.1 20.9 0.00 0.00 0.00 56 1005.9
20260505161127 20 3 16.1 20.9 0.00 0.00 0.00 56 1005.9
20260505160724 19 3 16.1 19.3 0.00 0.00 0.00 57 1005.9
20260505160646 19 3 16.1 19.3 0.00 0.00 0.00 57 1005.9
20260505160205 20 0 25.7 33.8 0.00 0.00 0.00 56 1006.0
20260505152919 22 39 12.9 22.5 0.00 0.00 0.00 41 1006.0
20260505152438 22 45 12.9 16.1 0.00 0.00 0.00 41 1006.0
20260505151957 22 61 11.3 17.7 0.00 0.00 0.00 41 1006.0
20260505151516 22 82 12.9 19.3 0.00 0.00 0.00 40 1006.1
20260505151035 23 69 8.0 12.9 0.00 0.00 0.00 39 1006.0
20260505150554 22 48 12.9 16.1 0.00 0.00 0.00 40 1006.0
20260505150113 22 45 12.9 19.3 0.00 0.00 0.00 38 1006.0
20260505140456 27 33 12.9 20.9 0.00 0.00 0.00 33 1006.6
20260505124949 27 51 11.3 24.1 0.00 0.00 0.00 34 1007.4
20260505124508 27 69 8.0 14.5 0.00 0.00 0.00 33 1007.4
20260505124118 26 45 9.7 16.1 0.00 0.00 0.00 33 1007.5
20260505124027 26 45 9.7 16.1 0.00 0.00 0.00 33 1007.5
20260505123544 27 64 8.0 17.7 0.00 0.00 0.00 34 1007.6
20260505123103 27 82 3.2 6.4 0.00 0.00 0.00 35 1007.6
20260505122621 25 63 9.7 14.5 0.00 0.00 0.00 35 1007.7
20260505122140 26 92 9.7 20.9 0.00 0.00 0.00 35 1007.7
20260505121658 25 67 8.0 12.9 0.00 0.00 0.00 37 1007.7
20260505121217 25 54 9.7 12.9 0.00 0.00 0.00 36 1007.7
20260505120735 25 55 8.0 16.1 0.00 0.00 0.00 37 1007.7
20260505120254 25 77 9.7 14.5 0.00 0.00 0.00 37 1007.7
20260505115812 25 45 8.0 12.9 0.00 0.00 0.00 38 1007.8
20260505115331 24 38 11.3 14.5 0.00 0.00 0.00 39 1007.9
20260505115000 25 44 9.7 12.9 0.00 0.00 0.00 38 1007.9
20260505114849 25 44 9.7 12.9 0.00 0.00 0.00 38 1007.9
20260505114408 25 18 6.4 14.5 0.00 0.00 0.00 38 1007.9
20260505113926 25 39 11.3 14.5 0.00 0.00 0.00 38 1007.9
20260505113444 25 51 9.7 14.5 0.00 0.00 0.00 39 1008.0
20260505113003 24 52 8.0 16.1 0.00 0.00 0.00 38 1007.9
20260505112521 24 52 9.7 12.9 0.00 0.00 0.00 38 1008.0
20260505112041 25 66 8.0 12.9 0.00 0.00 0.00 36 1008.0
20260505111558 24 61 11.3 12.9 0.00 0.00 0.00 38 1008.1
20260505111117 25 46 9.7 14.5 0.00 0.00 0.00 38 1008.1
20260505110635 25 60 6.4 8.0 0.00 0.00 0.00 40 1008.2
20260505110154 25 49 8.0 11.3 0.00 0.00 0.00 40 1008.2
20260505101940 23 46 6.4 9.7 0.00 0.00 0.00 43 1008.7
20260505101458 24 12 6.4 11.3 0.00 0.00 0.00 44 1008.7
20260505101017 23 36 6.4 9.7 0.00 0.00 0.00 45 1008.7
20260505100535 23 40 6.4 11.3 0.00 0.00 0.00 46 1008.8
20260505100055 23 24 6.4 9.7 0.00 0.00 0.00 46 1008.9
20260505095613 23 355 6.4 11.3 0.00 0.00 0.00 46 1008.9
20260505095131 22 338 8.0 11.3 0.00 0.00 0.00 47 1009.0
20260505094650 22 344 8.0 11.3 0.00 0.00 0.00 47 1009.0
20260505094209 22 338 9.7 14.5 0.00 0.00 0.00 46 1009.0
20260505093728 21 341 11.3 14.5 0.00 0.00 0.00 49 1009.1
20260505093246 21 330 9.7 14.5 0.00 0.00 0.00 48 1009.1
20260505092805 21 334 11.3 12.9 0.00 0.00 0.00 50 1009.1
20260505092324 21 328 9.7 16.1 0.00 0.00 0.00 50 1009.1
20260505091843 21 344 9.7 14.5 0.00 0.00 0.00 51 1009.1
20260505091403 21 339 9.7 12.9 0.00 0.00 0.00 52 1009.1
20260505090921 21 7 8.0 12.9 0.00 0.00 0.00 50 1009.2
20260505090439 21 9 9.7 11.3 0.00 0.00 0.00 52 1009.2
20260505085958 21 345 8.0 11.3 0.00 0.00 0.00 53 1009.2
20260505085518 20 347 11.3 12.9 0.00 0.00 0.00 53 1009.2
20260505085036 20 356 9.7 12.9 0.00 0.00 0.00 53 1009.3
20260505084555 20 342 9.7 12.9 0.00 0.00 0.00 53 1009.3
20260505084114 20 351 11.3 12.9 0.00 0.00 0.00 53 1009.3
20260505083634 20 348 11.3 14.5 0.00 0.00 0.00 53 1009.4
20260505083153 20 348 9.7 12.9 0.00 0.00 0.00 54 1009.4
20260505082712 20 351 11.3 12.9 0.00 0.00 0.00 53 1009.5
20260505082307 20 350 9.7 12.9 0.00 0.00 0.00 53 1009.4
20260505082231 20 350 9.7 12.9 0.00 0.00 0.00 53 1009.4
20260505081750 20 353 9.7 11.3 0.00 0.00 0.00 53 1009.5
20260505081309 20 0 11.3 12.9 0.00 0.00 0.00 53 1009.5
20260505080828 20 3 9.7 12.9 0.00 0.00 0.00 53 1009.5
20260505080347 20 0 11.3 14.5 0.00 0.00 0.00 53 1009.5
20260505080007 19 0 11.3 14.5 0.00 0.00 0.00 53 1009.5
20260505075906 19 0 11.3 14.5 0.00 0.00 0.00 53 1009.5
20260505075425 20 354 9.7 12.9 0.00 0.00 0.00 54 1009.5
20260505074944 20 0 9.7 12.9 0.00 0.00 0.00 54 1009.6
20260505074503 20 0 8.0 9.7 0.00 0.00 0.00 56 1009.6
20260505074022 20 357 8.0 11.3 0.00 0.00 0.00 57 1009.6
20260505073541 20 348 6.4 9.7 0.00 0.00 0.00 58 1009.6
20260505073100 20 351 6.4 9.7 0.00 0.00 0.00 59 1009.7
20260505072619 20 336 8.0 11.3 0.00 0.00 0.00 56 1009.7
20260505072143 20 0 6.4 11.3 0.00 0.00 0.00 59 1009.7
20260505072138 20 0 6.4 11.3 0.00 0.00 0.00 59 1009.7
20260505071702 19 351 6.4 9.7 0.00 0.00 0.00 61 1009.8
20260505071657 19 351 6.4 9.7 0.00 0.00 0.00 61 1009.8
20260505071220 19 0 6.4 8.0 0.00 0.00 0.00 62 1009.9
20260505071216 19 0 6.4 8.0 0.00 0.00 0.00 62 1009.9
20260505070735 18 338 8.0 9.7 0.00 0.00 0.00 58 1009.9
20260505070259 18 331 6.4 11.3 0.00 0.00 0.00 64 1009.9
20260505070255 18 331 6.4 11.3 0.00 0.00 0.00 64 1009.9
20260505065819 17 357 6.4 8.0 0.00 0.00 0.00 62 1009.9
20260505065814 17 357 6.4 8.0 0.00 0.00 0.00 62 1009.9
20260505065338 16 0 6.4 8.0 0.00 0.00 0.00 62 1009.9
20260505065334 16 0 6.4 8.0 0.00 0.00 0.00 62 1009.9
20260505064853 16 0 6.4 8.0 0.00 0.00 0.00 62 1010.0
20260505064413 16 0 6.4 8.0 0.00 0.00 0.00 62 1010.0
20260505064028 16 0 6.4 8.0 0.00 0.00 0.00 63 1009.9
20260505063937 16 0 6.4 8.0 0.00 0.00 0.00 63 1009.9
20260505063932 16 0 6.4 8.0 0.00 0.00 0.00 63 1009.9
20260505063452 16 0 6.4 8.0 0.00 0.00 0.00 63 1010.0
20260505063011 15 0 6.4 6.4 0.00 0.00 0.00 64 1010.0
20260505062536 15 3 6.4 8.0 0.00 0.00 0.00 64 1009.9
20260505062531 15 3 6.4 8.0 0.00 0.00 0.00 64 1009.9
20260505062055 15 9 8.0 9.7 0.00 0.00 0.00 64 1010.0
20260505062051 15 9 8.0 9.7 0.00 0.00 0.00 64 1010.0
20260505061610 15 19 8.0 9.7 0.00 0.00 0.00 65 1010.0
20260505061217 15 36 8.0 9.7 0.00 0.00 0.00 65 1010.0
20260505061134 15 36 8.0 9.7 0.00 0.00 0.00 65 1010.0
20260505061130 15 36 8.0 9.7 0.00 0.00 0.00 65 1010.0
20260505060653 15 45 6.4 8.0 0.00 0.00 0.00 65 1010.1
20260505060649 15 45 6.4 8.0 0.00 0.00 0.00 65 1010.1
20260505060213 15 45 4.8 6.4 0.00 0.00 0.00 65 1010.2
20260505060209 15 45 4.8 6.4 0.00 0.00 0.00 65 1010.2